EW2457 Weather Reports


Display with metric or nautical units.
time (UTC)temp
F
wind
direction
speed
MPH
gust
MPH
rain 1hr
in
rain 24hr
in
rain mn
in
humidity
%
barometer
mb
20260506094543 54 316 0.0 1.0 0.00 0.02 0.00 78 1017.7
20260506093042 54 323 0.0 2.0 0.00 0.02 0.00 78 1017.7
20260506091541 55 65 0.0 0.0 0.00 0.02 0.00 77 1017.5
20260506090039 55 337 0.0 1.0 0.00 0.02 0.00 77 1017.5
20260506084541 55 338 0.0 1.0 0.00 0.04 0.00 77 1017.6
20260506083038 55 23 0.0 1.0 0.00 0.04 0.00 77 1017.6
20260506081539 55 88 0.0 1.0 0.00 0.04 0.00 77 1017.6
20260506073032 55 10 0.0 0.0 0.00 0.07 0.00 77 1017.4
20260506071531 55 22 0.0 2.0 0.00 0.07 0.00 78 1017.3
20260506061524 56 39 0.0 1.0 0.00 0.08 0.07 77 1016.9
20260506044527 56 18 0.0 1.0 0.00 0.12 0.07 77 1016.3
20260506043017 55 30 0.0 1.0 0.00 0.12 0.07 77 1016.3
20260506041516 56 320 0.0 2.0 0.00 0.12 0.07 77 1016.2
20260506040012 56 260 0.0 2.0 0.00 0.12 0.07 77 1015.8
20260506034511 56 58 0.0 2.0 0.00 0.12 0.07 76 1015.6
20260506033010 57 5 0.0 4.0 0.00 0.12 0.07 76 1015.5
20260506031516 57 54 0.0 2.0 0.00 0.12 0.07 75 1015.3
20260506030019 57 273 0.0 4.0 0.00 0.12 0.07 75 1015.0
20260506024515 57 91 1.0 3.0 0.00 0.12 0.07 75 1015.0
20260506023004 58 191 0.0 5.0 0.00 0.12 0.07 75 1014.9
20260506021504 58 4 2.0 10.0 0.00 0.12 0.07 74 1014.7
20260506020004 58 13 2.0 6.0 0.00 0.12 0.07 74 1014.5
20260506014502 59 8 1.0 5.0 0.00 0.12 0.07 72 1014.6
20260506013002 60 25 1.0 6.0 0.00 0.12 0.07 71 1014.6
20260506011501 62 70 1.0 5.0 0.00 0.12 0.07 69 1014.7
20260506010106 63 218 2.0 4.0 0.00 0.12 0.07 66 1014.5
20260506004600 64 82 0.0 4.0 0.00 0.12 0.07 66 1014.5
20260506003059 63 328 1.0 5.0 0.00 0.12 0.07 68 1014.3
20260506001602 63 295 2.0 7.0 0.00 0.12 0.07 68 1014.2
20260506000104 61 1 2.0 0.0 0.00 0.00 0.07 71 1014.2
20260505234557 62 63 1.0 7.0 0.00 0.12 0.07 70 1014.2
20260505233112 62 255 2.0 5.0 0.00 0.12 0.07 70 1014.3
20260505231555 63 290 2.0 7.0 0.00 0.12 0.07 68 1014.3
20260505230054 64 311 1.0 8.0 0.00 0.12 0.07 66 1014.2
20260505224553 64 65 2.0 8.0 0.00 0.12 0.07 68 1014.2
20260505223052 63 144 1.0 7.0 0.00 0.12 0.07 70 1014.1
20260505221556 61 359 2.0 5.0 0.00 0.12 0.07 71 1014.2
20260505220048 61 285 2.0 7.0 0.00 0.12 0.07 70 1014.5
20260505214547 62 65 1.0 4.0 0.00 0.12 0.07 70 1014.6
20260505213048 61 206 1.0 5.0 0.00 0.12 0.07 70 1014.6
20260505211547 62 113 0.0 6.0 0.00 0.12 0.07 70 1014.7
20260505210045 62 102 2.0 6.0 0.00 0.12 0.07 69 1014.7
20260505204544 61 319 1.0 5.0 0.00 0.12 0.07 70 1014.7
20260505203050 62 356 2.0 8.0 0.00 0.12 0.07 68 1014.7
20260505201546 63 167 3.0 8.0 0.00 0.12 0.07 66 1014.7
20260505200041 63 32 2.0 7.0 0.00 0.12 0.07 68 1014.6
20260505194547 62 278 1.0 6.0 0.00 0.12 0.07 68 1014.9
20260505193055 62 76 1.0 4.0 0.00 0.12 0.07 70 1014.9
20260505191540 62 1 0.0 3.0 0.00 0.12 0.07 69 1014.9
20260505190041 60 41 1.0 3.0 0.00 0.12 0.07 72 1014.7
20260505184533 61 7 2.0 5.0 0.00 0.12 0.07 71 1014.6
20260505183032 61 321 2.0 5.0 0.00 0.12 0.07 71 1014.7
20260505181533 61 205 1.0 3.0 0.01 0.12 0.07 73 1014.8
20260505180036 60 117 1.0 3.0 0.01 0.12 0.07 74 1014.6
20260505174523 58 53 0.0 3.0 0.01 0.12 0.07 76 1014.5
20260505173020 57 210 1.0 3.0 0.01 0.12 0.07 77 1014.4
20260505171517 56 359 0.0 3.0 0.00 0.11 0.06 78 1014.4
20260505170017 56 138 0.0 3.0 0.00 0.11 0.06 79 1014.3
20260505164512 56 7 0.0 4.0 0.00 0.11 0.06 80 1014.4
20260505163010 55 84 1.0 3.0 0.00 0.11 0.06 80 1014.4
20260505161510 55 242 0.0 3.0 0.00 0.11 0.06 80 1014.2
20260505153005 54 41 0.0 3.0 0.00 0.11 0.06 81 1014.0
20260505151506 54 1 1.0 4.0 0.00 0.11 0.06 80 1013.9
20260505140104 53 11 1.0 3.0 0.00 0.11 0.06 81 1013.5
20260505124557 52 6 1.0 4.0 0.00 0.11 0.06 81 1013.2
20260505123109 52 336 0.0 4.0 0.00 0.11 0.06 81 1013.1
20260505121551 52 224 1.0 4.0 0.00 0.11 0.06 81 1013.1
20260505120056 52 72 0.0 2.0 0.00 0.11 0.06 81 1013.0
20260505114551 51 217 0.0 3.0 0.00 0.11 0.06 81 1013.1
20260505113051 51 353 0.0 2.0 0.00 0.11 0.06 81 1013.2
20260505111547 51 298 0.0 1.0 0.00 0.11 0.06 81 1013.3
20260505101542 52 58 0.0 2.0 0.00 0.11 0.06 81 1013.1
20260505100041 52 120 0.0 3.0 0.01 0.11 0.06 81 1013.4